Regional Weather Roundup
Issued by NWS

Home | Current Version | Previous Version | Text Only | Print | Product List | Glossary On
Versions: 1 2 3 4 5 6 7 8 9 10 11 12 13 14 15 16 17 18 19 20 21 22 23 24 25 26 27 28 29 30 31 32 33 34 35 36 37 38 39 40 41 42 43 44 45 46 47 48 49 50
000
ASUS43 KBIS 262110
RWRND

NORTH DAKOTA REGIONAL WEATHER ROUNDUP
NATIONAL WEATHER SERVICE BISMARCK ND
300 PM CST MON JAN 26 2015

NOTE: "FAIR" INDICATES FEW OR NO CLOUDS BELOW 12,000 FEET WITH NO
SIGNIFICANT WEATHER AND/OR OBSTRUCTIONS TO VISIBILITY.


NDZ001>003-009>011-017-262200-
NORTHWEST NORTH DAKOTA

CITY           SKY/WX    TMP DP  RH WIND       PRES   REMARKS
WILLISTON      MOSUNNY   50  31  48 SW9       29.93F
MINOT          SUNNY     45  32  60 NW8       29.93S
MINOT AFB      SUNNY     41  37  83 NW7       29.92F
$$

NDZ018>021-031>035-040>046-262200-
SOUTHWEST NORTH DAKOTA

CITY           SKY/WX    TMP DP  RH WIND       PRES   REMARKS
BISMARCK       SUNNY     49  31  49 NW8       29.96S
DICKINSON      PTSUNNY   51  31  46 W7        29.94F
GARRISON         N/A     47  35  63 NW8       29.94R
HETTINGER ARPT PTSUNNY   53  29  39 W8        29.97F
$$

NDZ004>008-012>016-024-026-027-054-262200-
NORTHEAST NORTH DAKOTA

CITY           SKY/WX    TMP DP  RH WIND       PRES   REMARKS
GRAND FORKS    CLOUDY    32  26  78 N16       29.89R
GRND FRKS AFB  PTSUNNY   35  28  75 N15       29.90R
DEVILS LAKE    SUNNY     37  30  75 NW12      29.89R
$$

NDZ022-023-025-028>030-036>039-047>053-262200-
SOUTHEAST NORTH DAKOTA

CITY           SKY/WX    TMP DP  RH WIND       PRES   REMARKS
FARGO          CLOUDY    38  31  76 N16       29.88R
JAMESTOWN      SUNNY     41  32  70 NW13      29.90R
$$




USA.gov is the U.S. government's official web portal to all federal, state and local government web resources and services.